Portada
METAR-TAF:

METAR-TAF

Aeroports :

Bradshaw Army Air Field

Bradshaw, Hawaii, Estats Units d'Amèrica

latitud: 19-47N, longitud: 155-33W, altitud: 1887 m

Observació

L'informe es va fer fa 58 minuts, a les 14:55 UTC
Vent 5 kt del Est
Temperatura 11°C
Humitat 58%
Pressió 1028 hPa
Visibilitat: 16.1 km
Núvols disperses a una alçada de 12000 ft

METAR: PHSF 291455Z AUTO 10005KT 10SM SCT120 11/03 A3036 RMK AO2 SLP168 T01100028 55001 $

Hora: 05:53 (15:53 UTC)


TAF: manca

Observacions i pronòstics meteorològics de més de 4000 aeroports (METAR i TAF).

Les estacions disponibles són els punts grocs i vermells al mapa.

Posi el ratolí al punt desitjat per veure el nom de l'estació.

Feu clic per veure les observacions i els pronòstics meteorològics.

Per canviar el mapa: feu clic els botons verds amb una creu de color negre per apropar; al botó verd amb un guió per allunyar la imatge; o en les fletxes verdes per a mapes adjacents.


METAR-TAF: